Погода в Задаре

Хорватия     44°06′51″N   15°15′19″E
темп.,
°C
ветер,
м/с
пор.,
м/с
влажн.,
%
обл.,
%
осадки,
мм/ч
давл.,
гПа
погр.,
м
15 августа, пн
пн1523:00+24с22708 0.0 100869
02:00+24з11683 0.0 100819
05:00+23всв11685 0.0 100856
08:00+24вюв446181 0.0 1008251
11:00+25ююв556367 0.0 1009418
14:00+25ю65630 0.0 1009416
17:00+25юв776295 0.0 1007353
20:00+24зюз91079100 0.2 1009631
16 августа, вт
вт1623:00+23вюв3370100 0.0 1010313
02:00+23ююв5576100 0.0 1010426
05:00+23ююв56795 0.0 1010432
08:00+23вюв56780 0.3 1011482
11:00+24ююв56670 0.8 1012510
14:00+25ю55680 0.8 1012392
17:00+25ююз22670 0.0 1012336
20:00+24ююв11700 0.0 101299
17 августа, ср
ср1723:00+24ююз01694 0.0 101383
02:00+24в33705 0.0 1012113
05:00+24вюв22691 0.0 1012100
08:00+24вюв12635 0.2 1013116
11:00+26ююз32610 0.0 1014313
14:00+26зюз33670 0.0 1014312
17:00+26зсз44680 0.0 1013273
20:00+25ююв00750 0.0 101211
18 августа, чт
чт1823:00+25сз00770 0.0 101311
02:00+25в11740 0.0 101212
05:00+25всв22650 0.0 101224
08:00+26в345521 0.0 101164
11:00+26ююв4459100 0.0 1012238
14:00+26ю346697 0.1 1012175
17:00+27ююв3461100 0.0 1010235
20:00+26ююв68694 0.0 1008109
19 августа, пт
пт1923:00+26ссв22685 0.0 100817
02:00+25ссз57695 0.0 1008116
05:00+26сз81466100 0.0 1010303
08:00+23вюв5573100 2.3 1010204
11:00+25ююв7969100 0.2 1010446
14:00+24ююв8107960 1.8 1011592
17:00+27з55660 0.0 1007318
20:00+22сз11138298 0.3 1008435